Weather in Sariyog‘och

Uzbekistan     40°53′04″N   70°08′02″E
temp.,
°C
wind,
m/s
gust,
m/s
humid.,
%
clouds,
%
prec.,
mm/h
press.,
hPa
HPBL,
m
11 april, sun
sun1123:00+8ne12490 0.0 102030
02:00+6ene12520 0.0 101930
05:00+6ne12520 0.0 101921
08:00+8nnw12480 0.0 1019473
11:00+11w47432 0.0 10181461
14:00+12w512451 0.0 10181745
17:00+10wsw35446 0.1 1018949
20:00+8nw115855 0.2 101828
12 april, mon
mon1223:00+8ne0264100 0.9 1018198
02:00+6n128373 1.7 1018141
05:00+6ese237962 2.9 101861
08:00+8wnw016448 1.3 1019169
11:00+11wnw125292 2.9 1018963
14:00+12w345059 2.1 10181295
17:00+10nne3353100 3.6 1019977
20:00+8ne3464100 0.6 1021157
13 april, tue
tue1323:00+7ne3364100 0.8 102173
02:00+7ene2360100 0.0 102044
05:00+7nw1262100 0.1 102014
08:00+8ene1265100 0.1 1021329
11:00+7ssw1177100 1.5 1023781
14:00+8ene3373100 2.5 1023440
17:00+10nw125481 2.6 1022869
20:00+8ene126395 0.4 1023238
14 april, wed
wed1423:00+8ene2264100 0.4 102238
02:00+7e336256 0.0 102139
05:00+6e33654 0.0 102038
08:00+10e34575 0.0 1019290
11:00+14e124312 0.0 10171415
14:00+16ne123415 0.0 10142196
17:00+16w123213 0.0 10132101
20:00+12nne11564 0.0 101413
15 april, thu
thu1523:00+11ene22541 0.0 101323
02:00+10ene225294 0.0 101321
05:00+9e1249100 0.0 101316
08:00+12nne1141100 0.0 1014149
11:00+16w233290 0.0 10131382
14:00+17w463433 0.0 10131815
17:00+15wsw3435100 0.0 10131184
20:00+11wsw1263100 0.0 101556